Weather History for KEAU - January, 2013

Change the Weather History Date:

Wednesday, January 23, 2013

  Actual Average Record
Temperature  
Mean Temperature 5 °F 14 °F  
Max Temperature 16 °F 24 °F 50 °F (1942)
Min Temperature -6 °F 5 °F -32 °F (1963)
Degree Days  
Heating Degree Days 60 51  
Month to date heating degree days 1135 1168  
Since 1 July heating degree days 4162 4344  
Cooling Degree Days 0 0  
Month to date cooling degree days 0 0  
Year to date cooling degree days 0 0  
Moisture  
Dew Point -2 °F    
Average Humidity 64    
Maximum Humidity 80    
Minimum Humidity 47    
Precipitation  
Precipitation T in 0.03 in 0.86 in (1969)
Month to date precipitation 0.28 0.66  
Year to date precipitation 0.28 0.66  
Snow  
Snow 0.10 in 0.50 in 7.50 in (1990)
Month to date snowfall 0.7 9.8  
Since 1 July snowfall 22.5 25.6  
Snow Depth T in    
Sea Level Pressure  
Sea Level Pressure 30.24 in    
Wind  
Wind Speed 7 mph (NW)    
Max Wind Speed 23 mph    
Max Gust Speed 31 mph    
Visibility 6 miles    
Events Snow    
T = Trace of Precipitation, MM = Missing Value Source: NWS Daily Summary

Daily Weather History Graph

Daily Weather History Graph

Search for Another Location

Airport or City:

Trip Planner

Search our weather history database for the weather conditions in past years. The results will help you decide how hot, cold, wet, or windy it might be!

Date:

Astronomy

Jan. 23, 2013 Rise Set
Actual Time 7:34 AM CST 5:02 PM CST
Civil Twilight 7:02 AM CST 5:33 PM CST
Nautical Twilight 6:26 AM CST 6:09 PM CST
Astronomical Twilight 5:51 AM CST 6:44 PM CST
Moon 2:10 PM CST (1/23) 4:48 AM CST (1/23)
Length of Visible Light 10h 31m
Length of Day
9h 27m
Waxing Gibbous, 89% of the Moon is Illuminated
Jan 23
Waxing Gibbous
Jan 26
Full
Feb 3
Last Quarter
Feb 10
New
Feb 17
First Quarter

Hourly Weather History & Observations

Time (CST) Temp. Windchill Dew Point Humidity Pressure Visibility Wind Dir Wind Speed Gust Speed Precip Events Conditions
12:56 AM -0.0 °F -7.9 °F -7.1 °F 72% 30.30 in 10.0 mi SSW 3.5 mph - N/A   Overcast
1:56 AM 1.9 °F -5.6 °F -6.0 °F 69% 30.28 in 10.0 mi SSW 3.5 mph - N/A   Overcast
2:56 AM 3.0 °F -4.4 °F -5.1 °F 69% 30.28 in 10.0 mi SSW 3.5 mph - N/A   Overcast
3:56 AM 3.0 °F - -4.0 °F 73% 30.25 in 10.0 mi Calm Calm - N/A   Overcast
4:56 AM 3.9 °F - -2.9 °F 73% 30.23 in 7.0 mi Calm Calm - 0.00 in Snow Light Snow
5:56 AM 3.9 °F - -2.0 °F 76% 30.22 in 10.0 mi Calm Calm - 0.00 in   Overcast
6:56 AM 5.0 °F - -0.0 °F 80% 30.21 in 6.0 mi Calm Calm - 0.00 in Snow Light Snow
7:56 AM 6.1 °F - 1.0 °F 80% 30.21 in 3.0 mi Calm Calm - 0.00 in Snow Light Snow
8:13 AM 6.8 °F - 1.4 °F 79% 30.13 in 2.5 mi Calm Calm - 0.00 in Snow Light Snow
8:54 AM 6.8 °F - 1.4 °F 79% 30.12 in 3.0 mi Calm Calm - 0.00 in Snow Light Snow
9:21 AM 8.6 °F - 3.2 °F 79% 30.12 in 2.5 mi Calm Calm - 0.00 in Snow Light Snow
9:31 AM 8.6 °F - 3.2 °F 79% 30.12 in 1.5 mi Calm Calm - 0.00 in Snow Light Snow
9:56 AM 9.0 °F - 3.9 °F 80% 30.20 in 1.5 mi Calm Calm - 0.00 in Snow Light Snow
10:13 AM 10.4 °F 0.8 °F 3.2 °F 73% 30.12 in 2.0 mi WSW 5.8 mph - 0.00 in Snow Light Snow
10:25 AM 10.4 °F 2.2 °F 5.0 °F 79% 30.13 in 4.0 mi West 4.6 mph - 0.00 in Snow Light Snow
10:42 AM 10.4 °F -0.4 °F 5.0 °F 79% 30.12 in 2.5 mi WSW 6.9 mph - 0.00 in Snow Light Snow
10:56 AM 10.9 °F 1.4 °F 5.0 °F 77% 30.19 in 3.0 mi West 5.8 mph - 0.00 in Snow Light Snow
11:56 AM 12.9 °F -0.9 °F 5.0 °F 71% 30.17 in 10.0 mi West 11.5 mph - 0.00 in   Overcast
12:56 PM 15.1 °F 1.1 °F 5.0 °F 64% 30.15 in 10.0 mi WNW 12.7 mph 21.9 mph N/A   Overcast
1:45 PM 14.0 °F -2.0 °F 5.0 °F 67% 30.08 in 5.0 mi WNW 16.1 mph 23.0 mph 0.00 in Snow Light Snow
1:56 PM 12.9 °F -5.3 °F 3.9 °F 67% 30.16 in 6.0 mi NW 20.7 mph - 0.00 in Snow Light Snow
2:35 PM 12.2 °F -3.1 °F 3.2 °F 67% 30.11 in 8.0 mi WNW 13.8 mph 23.0 mph 0.00 in   Overcast
2:56 PM 12.9 °F -1.6 °F 1.9 °F 62% 30.19 in 9.0 mi NW 12.7 mph 25.3 mph 0.00 in Snow Light Snow
3:04 PM 12.2 °F -3.7 °F 3.2 °F 67% 30.13 in 1.8 mi NW 15.0 mph 23.0 mph 0.00 in Snow Light Snow
3:14 PM 12.2 °F -3.1 °F 1.4 °F 62% 30.14 in 4.0 mi NW 13.8 mph 25.3 mph 0.00 in Snow Light Snow
3:19 PM 12.2 °F -4.3 °F 3.2 °F 67% 30.14 in 1.8 mi NW 16.1 mph - 0.00 in Snow Light Snow
3:31 PM 10.4 °F -6.6 °F 1.4 °F 67% 30.15 in 4.0 mi NW 16.1 mph 23.0 mph 0.00 in Snow Light Snow
3:42 PM 10.4 °F -7.7 °F -0.4 °F 62% 30.16 in 5.0 mi NW 18.4 mph 27.6 mph 0.00 in Snow Light Snow
3:56 PM 10.9 °F -7.9 °F -0.9 °F 59% 30.24 in 9.0 mi NNW 20.7 mph 27.6 mph 0.00 in   Scattered Clouds
4:17 PM 10.4 °F -6.0 °F 1.4 °F 67% 30.19 in 1.8 mi NNW 15.0 mph 24.2 mph 0.00 in Snow Light Snow
4:34 PM 8.6 °F -8.3 °F -0.4 °F 67% 30.20 in 2.5 mi NNW 15.0 mph 26.5 mph 0.00 in Snow Light Snow
4:41 PM 8.6 °F -9.5 °F -2.2 °F 62% 30.22 in 8.0 mi North 17.3 mph 26.5 mph 0.00 in   Overcast
4:56 PM 7.0 °F -11.0 °F -6.0 °F 55% 30.31 in 8.0 mi NNW 16.1 mph 31.1 mph 0.00 in   Overcast
5:18 PM 5.0 °F -14.7 °F -7.6 °F 56% 30.26 in 10.0 mi NNW 18.4 mph 27.6 mph N/A   Scattered Clouds
5:56 PM 3.9 °F -13.7 °F -11.0 °F 50% 30.38 in 10.0 mi North 13.8 mph 21.9 mph N/A   Partly Cloudy
6:56 PM 1.0 °F -14.0 °F -14.1 °F 49% 30.46 in 10.0 mi North 9.2 mph - N/A   Clear
7:56 PM -0.9 °F -16.4 °F -16.1 °F 49% 30.50 in 10.0 mi NNW 9.2 mph - N/A   Clear
8:56 PM -2.9 °F -16.5 °F -17.0 °F 51% 30.53 in 10.0 mi NNW 6.9 mph - N/A   Clear
9:56 PM -4.0 °F -19.0 °F -17.0 °F 54% 30.56 in 10.0 mi North 8.1 mph - N/A   Clear
10:56 PM -5.1 °F -19.1 °F -17.0 °F 57% 30.59 in 10.0 mi NNW 6.9 mph - N/A   Clear
11:56 PM -6.0 °F -18.6 °F -17.0 °F 59% 30.62 in 10.0 mi NNW 5.8 mph - N/A   Clear